| time (UTC) | temp C | wind direction | speed KPH | gust KPH | rain 1hr cm | rain 24hr cm | rain mn cm | humidity % | barometer mb |
| 20260507063006 | 16 | 356 | 0.0 | 6.4 | 0.00 | 0.00 | 0.00 | 77 | 1013.0 |
| 20260507060005 | 15 | 358 | 1.6 | 6.4 | 0.00 | 0.03 | 0.00 | 80 | 1012.8 |
| 20260507054504 | 15 | 62 | 3.2 | 8.0 | 0.00 | 0.03 | 0.00 | 81 | 1012.6 |
| 20260507053004 | 14 | 2 | 1.6 | 4.8 | 0.00 | 0.03 | 0.00 | 84 | 1012.5 |
| 20260507051504 | 13 | 92 | 1.6 | 4.8 | 0.00 | 0.03 | 0.00 | 86 | 1012.3 |
| 20260507050004 | 13 | 101 | 1.6 | 4.8 | 0.00 | 0.03 | 0.00 | 88 | 1012.3 |
| 20260507043003 | 12 | 137 | 3.2 | 4.8 | 0.00 | 0.03 | 0.00 | 90 | 1012.1 |
| 20260507041504 | 12 | 130 | 1.6 | 4.8 | 0.00 | 0.03 | 0.00 | 90 | 1012.0 |
| 20260507034505 | 12 | 117 | 1.6 | 4.8 | 0.00 | 0.03 | 0.00 | 90 | 1012.0 |
| 20260507033004 | 12 | 116 | 3.2 | 4.8 | 0.00 | 0.03 | 0.00 | 89 | 1011.9 |
| 20260507031504 | 12 | 110 | 1.6 | 3.2 | 0.00 | 0.03 | 0.00 | 89 | 1011.9 |
| 20260507030008 | 13 | 3 | 1.6 | 4.8 | 0.00 | 0.03 | 0.00 | 88 | 1011.9 |
| 20260507024505 | 13 | 114 | 1.6 | 8.0 | 0.00 | 0.03 | 0.00 | 89 | 1011.9 |
| 20260507023004 | 12 | 87 | 1.6 | 3.2 | 0.00 | 0.03 | 0.00 | 89 | 1011.9 |
| 20260507021515 | 13 | 122 | 3.2 | 6.4 | 0.00 | 0.03 | 0.00 | 88 | 1012.0 |
| 20260507020005 | 13 | 357 | 1.6 | 4.8 | 0.00 | 0.03 | 0.00 | 88 | 1011.9 |
| 20260507014504 | 13 | 13 | 3.2 | 8.0 | 0.00 | 0.03 | 0.00 | 87 | 1011.7 |
| 20260507011507 | 13 | 111 | 4.8 | 11.3 | 0.00 | 0.10 | 0.00 | 86 | 1011.6 |
| 20260507010005 | 13 | 81 | 6.4 | 9.7 | 0.00 | 0.20 | 0.00 | 86 | 1011.6 |
| 20260507004506 | 14 | 34 | 4.8 | 8.0 | 0.00 | 0.33 | 0.00 | 85 | 1011.9 |
| 20260507003006 | 14 | 102 | 3.2 | 11.3 | 0.00 | 0.33 | 0.00 | 84 | 1011.9 |
| 20260507001506 | 15 | 66 | 3.2 | 6.4 | 0.00 | 0.33 | 0.00 | 83 | 1012.0 |
| 20260507000004 | 15 | 80 | 6.4 | 11.3 | 0.00 | 0.33 | 0.00 | 81 | 1011.4 |
| 20260506234504 | 15 | 20 | 3.2 | 11.3 | 0.00 | 0.33 | 0.00 | 79 | 1011.6 |
| 20260506233004 | 16 | 55 | 6.4 | 20.9 | 0.00 | 0.33 | 0.00 | 84 | 1011.6 |
| 20260506230004 | 17 | 309 | 4.8 | 12.9 | 0.00 | 0.33 | 0.00 | 91 | 1011.4 |
| 20260506223006 | 17 | 301 | 4.8 | 14.5 | 0.00 | 0.33 | 0.00 | 92 | 1011.4 |
| 20260506220006 | 17 | 300 | 6.4 | 14.5 | 0.00 | 0.33 | 0.00 | 92 | 1011.6 |
| 20260506211517 | 17 | 294 | 4.8 | 12.9 | 0.00 | 0.33 | 0.33 | 92 | 1011.6 |
| 20260506210003 | 17 | 296 | 4.8 | 8.0 | 0.00 | 0.33 | 0.33 | 92 | 1011.7 |
| 20260506204504 | 17 | 306 | 3.2 | 16.1 | 0.00 | 0.33 | 0.33 | 92 | 1011.6 |
| 20260506203003 | 17 | 312 | 4.8 | 16.1 | 0.00 | 0.33 | 0.33 | 92 | 1011.5 |
| 20260506201503 | 17 | 297 | 8.0 | 14.5 | 0.00 | 0.33 | 0.33 | 93 | 1011.3 |
| 20260506200003 | 17 | 291 | 8.0 | 16.1 | 0.00 | 0.33 | 0.33 | 92 | 1011.2 |
| 20260506194503 | 17 | 288 | 8.0 | 17.7 | 0.00 | 0.33 | 0.33 | 92 | 1010.9 |
| 20260506193003 | 17 | 288 | 6.4 | 14.5 | 0.00 | 0.33 | 0.33 | 92 | 1010.7 |
| 20260506191503 | 17 | 303 | 6.4 | 12.9 | 0.00 | 0.33 | 0.33 | 92 | 1010.6 |
| 20260506190003 | 17 | 303 | 6.4 | 14.5 | 0.00 | 0.33 | 0.33 | 92 | 1010.6 |
| 20260506184502 | 17 | 301 | 6.4 | 14.5 | 0.00 | 0.33 | 0.33 | 92 | 1010.3 |
| 20260506183004 | 17 | 300 | 8.0 | 16.1 | 0.00 | 0.33 | 0.33 | 91 | 1010.2 |
| 20260506181503 | 17 | 284 | 6.4 | 12.9 | 0.00 | 0.33 | 0.33 | 91 | 1010.0 |
| 20260506173003 | 17 | 288 | 11.3 | 25.7 | 0.00 | 0.33 | 0.33 | 91 | 1009.8 |
| 20260506171505 | 18 | 288 | 11.3 | 20.9 | 0.00 | 0.33 | 0.33 | 90 | 1009.8 |
| 20260506170003 | 18 | 273 | 11.3 | 25.7 | 0.00 | 0.33 | 0.33 | 90 | 1009.9 |
| 20260506164502 | 18 | 274 | 11.3 | 22.5 | 0.00 | 0.33 | 0.33 | 89 | 1009.9 |
| 20260506163003 | 18 | 292 | 9.7 | 22.5 | 0.00 | 0.33 | 0.33 | 89 | 1010.0 |
| 20260506161503 | 18 | 293 | 9.7 | 27.4 | 0.00 | 0.33 | 0.33 | 89 | 1010.3 |
| 20260506160004 | 18 | 292 | 11.3 | 25.7 | 0.00 | 0.33 | 0.33 | 88 | 1010.2 |
| 20260506154505 | 18 | 294 | 11.3 | 25.7 | 0.00 | 0.33 | 0.33 | 88 | 1010.4 |
| 20260506153003 | 18 | 290 | 11.3 | 22.5 | 0.00 | 0.33 | 0.33 | 88 | 1010.3 |
| 20260506151503 | 18 | 285 | 9.7 | 22.5 | 0.00 | 0.33 | 0.33 | 88 | 1010.2 |
| 20260506150002 | 18 | 294 | 9.7 | 19.3 | 0.00 | 0.33 | 0.33 | 88 | 1010.2 |
| 20260506143003 | 19 | 292 | 11.3 | 22.5 | 0.00 | 0.33 | 0.33 | 87 | 1010.2 |
| 20260506141518 | 19 | 303 | 9.7 | 20.9 | 0.00 | 0.33 | 0.33 | 86 | 1010.2 |
| 20260506140003 | 20 | 295 | 9.7 | 19.3 | 0.00 | 0.33 | 0.33 | 86 | 1010.3 |
| 20260506134502 | 20 | 292 | 9.7 | 24.1 | 0.00 | 0.33 | 0.33 | 86 | 1010.3 |
| 20260506133003 | 20 | 291 | 9.7 | 19.3 | 0.00 | 0.33 | 0.33 | 85 | 1010.3 |
| 20260506131503 | 20 | 298 | 11.3 | 22.5 | 0.00 | 0.33 | 0.33 | 86 | 1010.4 |
| 20260506124502 | 20 | 305 | 12.9 | 27.4 | 0.00 | 0.33 | 0.33 | 85 | 1010.5 |
| 20260506123003 | 20 | 306 | 9.7 | 24.1 | 0.00 | 0.33 | 0.33 | 84 | 1010.3 |
| 20260506121503 | 20 | 283 | 9.7 | 24.1 | 0.00 | 0.33 | 0.33 | 85 | 1010.5 |
| 20260506120003 | 19 | 288 | 9.7 | 20.9 | 0.00 | 0.33 | 0.33 | 85 | 1010.4 |
| 20260506114503 | 20 | 289 | 12.9 | 27.4 | 0.00 | 0.33 | 0.33 | 85 | 1010.6 |
| 20260506113002 | 20 | 278 | 11.3 | 24.1 | 0.00 | 0.33 | 0.33 | 85 | 1010.4 |
| 20260506111503 | 19 | 278 | 11.3 | 24.1 | 0.00 | 0.33 | 0.33 | 86 | 1010.2 |
| 20260506104505 | 18 | 268 | 14.5 | 27.4 | 0.00 | 0.33 | 0.33 | 88 | 1010.4 |
| 20260506103003 | 18 | 257 | 12.9 | 27.4 | 0.00 | 0.33 | 0.33 | 88 | 1010.5 |
| 20260506101503 | 18 | 285 | 12.9 | 29.0 | 0.00 | 0.33 | 0.33 | 89 | 1010.5 |
| 20260506100003 | 18 | 279 | 11.3 | 27.4 | 0.00 | 0.33 | 0.33 | 89 | 1010.4 |
| 20260506093002 | 18 | 293 | 14.5 | 29.0 | 0.00 | 0.33 | 0.33 | 90 | 1010.2 |
| 20260506090003 | 17 | 285 | 14.5 | 30.6 | 0.00 | 0.33 | 0.33 | 89 | 1009.8 |
| 20260506084503 | 17 | 292 | 14.5 | 35.4 | 0.00 | 0.33 | 0.33 | 89 | 1009.7 |
| 20260506083002 | 17 | 291 | 12.9 | 29.0 | 0.00 | 0.33 | 0.33 | 89 | 1009.6 |
| 20260506081506 | 17 | 285 | 12.9 | 27.4 | 0.00 | 0.33 | 0.33 | 89 | 1009.5 |
| 20260506073003 | 17 | 290 | 11.3 | 25.7 | 0.00 | 0.33 | 0.33 | 87 | 1009.7 |
| 20260506071503 | 17 | 285 | 11.3 | 22.5 | 0.03 | 0.33 | 0.33 | 87 | 1009.5 |